CW4290 Weather Reports


time (UTC)temp
F
wind
direction
speed
knots
gust
knots
rain 1hr
in
rain 24hr
in
rain mn
in
humidity
%
barometer
mb
20190523134551 77 96 0.9 0.0 0.00 0.00 0.00 85 1015.5
20190523133110 76 98 0.9 0.0 0.00 0.00 0.00 87 1015.5
20190523131558 76 117 1.7 0.0 0.00 0.00 0.00 88 1015.5
20190523130027 75 124 0.0 0.0 0.00 0.00 0.00 89 1015.5
20190523124613 75 94 1.7 0.0 0.00 0.00 0.00 89 1015.3
20190523123036 74 130 0.0 0.0 0.00 0.00 0.00 89 1015.1
20190523121557 74 150 0.9 0.0 0.00 0.00 0.00 89 1015.0
20190523120027 74 167 0.9 0.0 0.00 0.00 0.00 89 1014.8
20190523114543 74 207 0.0 0.0 0.00 0.00 0.00 88 1014.6
20190523113018 74 138 0.0 0.0 0.00 0.00 0.00 88 1014.5
20190523111514 73 135 0.0 0.0 0.00 0.00 0.00 88 1014.5
20190523110016 74 136 0.0 0.0 0.00 0.00 0.00 87 1014.3
20190523104509 73 136 0.0 0.0 0.00 0.00 0.00 87 1014.1
20190523103011 74 136 0.0 0.0 0.00 0.00 0.00 87 1014.0
20190523101518 74 136 0.0 0.0 0.00 0.00 0.00 86 1013.9
20190523100030 74 135 0.0 0.0 0.00 0.00 0.00 86 1013.8
20190523094527 74 136 0.0 0.0 0.00 0.00 0.00 86 1013.5
20190523093011 74 136 0.0 0.0 0.00 0.00 0.00 86 1013.3
20190523091502 75 136 0.0 0.0 0.00 0.00 0.00 85 1013.2
20190523084711 75 134 0.0 0.0 0.00 0.00 0.00 84 1012.7
20190523083146 75 134 0.0 0.0 0.00 0.00 0.00 84 1012.6
20190523081655 76 134 0.9 0.0 0.00 0.00 0.00 83 1012.4
20190523080134 76 142 0.0 0.0 0.00 0.00 0.00 82 1012.4
20190523074706 76 148 0.0 0.0 0.00 0.00 0.00 81 1012.3
20190523073257 76 134 0.9 0.0 0.00 0.00 0.00 81 1011.9
20190523071739 76 159 2.6 0.0 0.00 0.00 0.00 80 1011.9
20190523070303 76 117 1.7 0.0 0.00 0.00 0.00 79 1011.8
20190523064634 77 139 1.7 0.0 0.00 0.00 0.00 79 1011.5
20190523063121 77 144 0.9 0.0 0.00 0.00 0.00 79 1011.5
20190523061626 77 135 2.6 0.0 0.00 0.00 0.00 79 1011.5
20190523060147 77 148 2.6 0.0 0.00 0.00 0.00 79 1011.4
20190523054653 77 158 2.6 0.0 0.00 0.00 0.00 79 1011.4
20190523053143 77 165 2.6 0.0 0.00 0.00 0.00 79 1011.3
20190523051709 78 225 0.9 0.0 0.00 0.00 0.00 78 1011.3
20190523050056 78 155 0.9 0.0 0.00 0.00 0.00 77 1011.3
20190523044621 78 155 0.9 0.0 0.00 0.00 0.00 76 1011.4
20190523043155 78 159 1.7 0.0 0.00 0.00 0.00 75 1011.4
20190523041644 78 122 0.9 0.0 0.00 0.00 0.00 75 1011.3
20190523040110 79 115 1.7 0.0 0.00 0.00 0.00 75 1011.2
20190523034623 79 144 1.7 0.0 0.00 0.00 0.00 74 1010.9
20190523033125 79 162 1.7 0.0 0.00 0.00 0.00 74 1010.8
20190523031612 79 135 0.9 0.0 0.00 0.00 0.00 72 1010.5
20190523030113 80 131 0.9 0.0 0.00 0.00 0.00 71 1010.3
20190523024621 80 126 0.9 0.0 0.00 0.00 0.00 71 1009.8
20190523023039 80 122 0.9 0.0 0.00 0.00 0.00 70 1009.7
20190523021605 81 144 0.9 0.0 0.00 0.00 0.00 69 1009.4
20190523020058 81 144 0.0 0.0 0.00 0.00 0.00 67 1009.2
20190523014638 82 144 0.0 0.0 0.00 0.00 0.00 66 1009.1
20190523013108 83 129 0.0 0.0 0.00 0.00 0.00 65 1009.0
20190523011554 84 129 0.0 0.0 0.00 0.00 0.00 63 1008.7
20190523010059 84 129 1.7 0.0 0.00 0.00 0.00 61 1008.7
20190523004625 85 119 1.7 0.0 0.00 0.00 0.00 59 1008.6
20190523003035 86 145 0.9 0.0 0.00 0.00 0.00 58 1008.4
20190523001555 86 168 1.7 0.0 0.00 0.00 0.00 56 1008.3
20190523000101 87 186 4.3 0.0 0.00 0.00 0.00 54 1008.2
20190522234559 88 169 3.5 0.0 0.00 0.00 0.00 53 1008.2
20190522233113 89 98 3.5 0.0 0.00 0.00 0.00 52 1008.2
20190522231540 90 158 2.6 0.0 0.00 0.00 0.00 52 1008.2
20190522230103 90 170 2.6 0.0 0.00 0.00 0.00 51 1008.3
20190522224557 89 165 3.5 0.0 0.00 0.00 0.00 52 1008.4
20190522223053 89 172 3.5 0.0 0.00 0.00 0.00 51 1008.3
20190522221608 89 101 1.7 0.0 0.00 0.00 0.00 52 1008.3
20190522220111 89 190 2.6 0.0 0.00 0.00 0.00 52 1008.4
20190522214556 89 211 4.3 0.0 0.00 0.00 0.00 53 1008.6
20190522213111 88 190 3.5 0.0 0.00 0.00 0.00 54 1008.7
20190522211527 89 180 2.6 0.0 0.00 0.00 0.00 54 1008.7
20190522210034 87 169 3.5 0.0 0.00 0.00 0.00 58 1008.8
20190522204551 88 157 4.3 0.0 0.00 0.00 0.00 55 1008.8
20190522203047 88 161 3.5 0.0 0.00 0.00 0.00 53 1008.8
20190522201601 88 160 3.5 0.0 0.00 0.00 0.00 57 1008.7
20190522200040 88 115 2.6 0.0 0.00 0.00 0.00 57 1009.0
20190522194536 87 157 6.1 0.0 0.00 0.00 0.00 56 1009.1
20190522193027 87 155 3.5 0.0 0.00 0.00 0.00 58 1009.2
20190522191543 86 221 4.3 0.0 0.00 0.00 0.00 59 1009.3
20190522190032 87 137 4.3 0.0 0.00 0.00 0.00 57 1009.3
20190522184518 86 227 4.3 0.0 0.00 0.00 0.00 58 1009.3
20190522183031 87 196 3.5 0.0 0.00 0.00 0.00 59 1009.3
20190522181527 86 144 3.5 0.0 0.00 0.00 0.00 61 1009.3
20190522180010 85 210 5.2 0.0 0.00 0.00 0.00 61 1009.3
20190522174508 85 143 6.1 0.0 0.00 0.00 0.00 62 1009.3
20190522173034 86 78 3.5 0.0 0.00 0.00 0.00 62 1009.4
20190522171505 84 58 3.5 0.0 0.00 0.00 0.00 64 1009.3
20190522164744 83 158 3.5 0.0 0.00 0.00 0.00 66 1009.2
20190522163218 83 144 3.5 0.0 0.00 0.00 0.00 67 1009.0
20190522161642 83 147 3.5 0.0 0.00 0.00 0.00 69 1008.9
20190522160130 82 136 3.5 0.0 0.00 0.00 0.00 73 1008.8
20190522154658 81 138 3.5 0.0 0.00 0.00 0.00 76 1008.8
20190522153158 80 178 2.6 0.0 0.00 0.00 0.00 78 1008.8
20190522151643 79 119 2.6 0.0 0.00 0.00 0.00 81 1008.8
20190522150122 78 159 1.7 0.0 0.00 0.00 0.00 84 1008.8
20190522144619 78 140 3.5 0.0 0.00 0.00 0.00 85 1008.7
20190522143153 77 165 2.6 0.0 0.00 0.00 0.00 89 1008.3
20190522141701 76 124 3.5 0.0 0.00 0.00 0.00 91 1008.2
20190522140107 76 111 2.6 0.0 0.00 0.00 0.00 92 1008.0